Simultaneous Nadir Overpasses (SNOs) Predictions

Prediction of SNOs between GOES-16 and NOAA-20 Satellite Orbit:

Table of predicted SNOs for the next 14.0 days since TLE Epoch: 10/15/2022
Index Date Time (GOES-16) GOES-16 Lat,Lon NOAA-20 Lat,Lon Distance(km) Time Diff (sec)
1 10/16/2022 06:42:11 0.05, -75.19 1.00, -79.52 493.25 80
2 10/17/2022 06:23:25 0.05, -75.19 0.03, -74.98 23.61 80
3 10/19/2022 18:26:37 -0.04, -75.22 -0.19, -75.76 62.47 80
4 10/20/2022 18:10:33 -0.04, -75.23 0.84, -71.23 455.00 80
5 10/22/2022 06:30:16 0.03, -75.23 0.34, -76.50 145.00 44
6 10/23/2022 06:10:56 0.04, -75.24 -0.70, -71.97 372.73 80
7 10/24/2022 18:32:52 -0.03, -75.27 -0.48, -77.28 228.77 80
8 10/25/2022 18:16:47 -0.03, -75.28 0.56, -72.75 289.33 80
9 10/27/2022 06:38:35 0.03, -75.30 0.62, -78.02 309.81 80
10 10/28/2022 06:17:09 0.03, -75.31 -0.36, -73.48 208.10 80
